Location: *
(41.3833°S, 177.8333°W)
Time: 02:08:22
(UTC+00:00)

Cosmos 1092 Rocket - Pass Details

Date: 01 April 2020
Orbit: 954 x 995 km, 83.0° (Epoch: 05 June)

Event Time Altitude Azimuth Distance (km) Brightness Sun altitude
Rises 16:20:07 0° 193° (SSW) 3,703 7.0 -20.9°
Reaches altitude 10° 16:22:41 10° 196° (SSW) 2,755 6.3 -20.5°
Maximum altitude 16:28:49 54° 271° (W) 1,187 4.1 -19.3°
Drops below altitude 10° 16:34:56 10° 347° (NNW) 2,749 6.1 -18.2°
Sets 16:37:30 0° 351° (N) 3,694 6.8 -17.7°
